map of AAE home
AAE - Airport
Location
City:  Annaba, El Tarf, Algeria
Name:Rabah Bitat
Old (Alt.):El Mellah
ICAO:DABB
IATA:AAE

Details
Type:Airport (Aerodrome, Airfield)
Use:Public/Civil, International (customs port of entry)
Latitude:3649'20"N (36.822222)
Longitude:748'34"E (7.809444)
Elevation:16 ft (5 m)
Variation:2.08E (WMM2015 magnetic declination)
0.10 annual change
Runways:2
Longest:9843 × 148 ft (3000 × 45 m)

Time
Time Zone:UTC+1
Local Time:

Weather
METAR:DABB 161330Z 24008KT 9999 FEW023 18/06 Q1017
TAF:DABB 161100Z 1612/1712 26008KT CAVOK
TEMPO 1700/1709 2000 BR BKN008 PROB30
TEMPO 1703/1708 0400 FG BKN003

Related Locations
Nearby:
Farthest:CHT: 11900 mi / 19151 km
Waitangi [Tuuta], CIT, NZ

Find:

   beyond  
but within

Other Information
Maps:
NOTAMs:
Links:
Sources:

  
  • flag of Algeria
  

Sectional Chart

Flight Planning
at skyvector.com

Satellite Image

Google Maps Satellite view

 

Copyright © 2004-2019 Karl L. Swartz. All rights reserved.
The Great Circle Mapper name and logo are trademarks of the Great Circle Mapper.
All other trademarks mentioned herein belong to their respective owners.
Please see credits for attibutions and further copyright information.

  Follow gcmap on Facebook Follow gcmap on Twitter Follow gcmap on Google+ GCmap on LinkedIn

hCard Microformat

Geo Microformat